Dewpoint
39 39 39 39 38 37 37 37 36 36 36 35 35 35 34 34 34 34 34 35 35 35 35 35 36 36 37 38 38 39 39 39 40 39 39 39 40 40 41 42 42 43 44 44 44 44 44 44 44 43 42 41 40 40 40 39 39 39 38 38 37 36 36 36 35 33 33 31 30
39 39 38 37 37 37 37 37 36 36 36 36 36 35 35 35 35 34 35 35 35 35 35 36 36 37 38 39 39 39 40 40 41 41 41 41 42 42 42 43 43 43 43 43 43 42 42 41 40 39 39 38 38 37 37 36 36 36 36 35 35 34 34 33 32 32 31 30 30
39 39 38 37 37 37 37 37 37 37 36 36 36 36 36 36 35 35 35 36 36 37 37 37 37 38 39 39 40 41 41 42 42 42 42 42 42 42 42 41 42 41 40 40 40 40 39 39 39 37 36 36 35 35 35 34 33 33 33 33 32 31 30 30 30 30 30 29 29
40 39 38 37 37 37 37 37 37 36 36 36 37 37 37 37 37 37 37 37 38 38 38 38 39 40 41 41 41 42 42 42 42 42 42 42 41 41 41 40 40 40 40 39 39 39 39 39 38 36 35 35 34 33 32 31 31 30 30 30 30 30 29 29 29 29 29 29 29
40 39 39 38 38 38 39 38 37 37 36 36 36 36 36 36 36 36 37 37 38 38 38 39 40 41 42 42 42 42 42 42 40 40 41 40 40 40 40 40 40 40 40 39 39 39 38 38 36 35 34 33 32 31 30 30 30 30 29 30 29 29 29 29 29 29 29 29 29
39 39 39 39 39 39 38 38 37 37 37 37 36 36 35 35 35 35 35 35 36 38 38 38 39 39 40 42 42 42 42 42 41 40 40 40 40 40 39 39 40 40 40 39 39 39 38 37 35 34 34 33 32 31 30 30 30 29 29 29 29 29 29 29 29 29 29 29 29
35 35 36 37 38 38 37 36 37 37 37 37 36 36 36 36 35 35 36 36 36 37 37 36 37 38 39 39 39 40 40 40 40 39 38 38 38 38 38 38 38 38 38 37 38 37 36 36 33 32 32 32 32 32 32 31 31 30 29 29 29 29 29 29 29 29 29 28 28
33 33 33 33 34 35 35 35 35 35 35 35 35 35 36 36 35 35 36 36 35 35 35 35 37 37 37 37 38 38 38 38 37 37 36 36 36 36 35 35 35 35 35 35 34 34 34 33 32 31 31 31 31 32 33 33 32 31 30 29 29 29 29 28 28 28 28 28 28
32 32 33 33 33 33 33 34 34 34 35 35 34 35 35 36 35 35 35 34 34 34 34 34 35 36 36 36 36 36 36 34 34 34 34 34 34 34 34 34 34 33 32 32 32 32 32 31 31 31 30 30 30 30 32 33 32 32 30 28 29 29 29 29 29 28 28 28 29
31 32 32 32 33 33 33 33 34 34 35 35 35 35 35 33 34 34 34 33 32 32 32 33 33 34 34 35 35 34 33 32 32 32 33 34 33 33 33 32 32 31 30 31 31 31 30 30 30 30 30 30 30 30 32 33 31 31 30 28 29 29 29 29 28 28 27 28 29
31 31 32 32 32 32 32 33 33 33 33 34 33 33 33 32 33 33 33 31 32 32 32 32 33 33 33 34 33 33 32 33 33 32 32 32 31 31 31 30 29 28 28 29 30 30 29 29 29 30 30 29 30 31 32 32 31 30 30 29 29 29 29 28 28 27 27 27 29
31 31 31 31 31 31 31 32 32 32 32 32 31 31 31 32 32 32 31 31 32 32 32 31 32 33 32 32 33 32 32 33 32 31 30 29 29 28 27 26 26 26 26 27 28 28 27 28 29 29 29 29 30 30 30 31 30 30 30 29 29 28 28 29 28 27 27 27 28
31 31 30 30 30 30 30 30 30 30 30 30 30 30 30 30 30 30 30 31 31 30 30 30 30 31 30 30 30 30 30 29 28 27 26 26 26 25 24 24 25 25 26 27 28 27 26 27 27 27 27 28 29 30 30 30 29 28 28 29 28 28 28 28 28 27 27 27 28
30 30 30 30 29 29 30 30 30 30 30 30 30 29 29 30 30 29 30 30 30 29 29 29 29 28 28 28 28 27 26 26 25 25 24 24 25 25 24 24 25 25 26 28 28 27 26 26 26 26 26 27 28 29 29 29 28 28 27 28 28 28 28 28 28 28 28 29 28
30 30 29 29 29 29 29 29 29 29 29 29 29 29 29 29 29 29 29 29 29 29 29 28 28 27 28 28 26 26 25 24 23 23 23 23 24 24 24 25 25 25 26 27 28 28 27 26 26 26 26 26 26 27 27 28 28 28 27 27 27 27 27 27 27 28 28 29 28
29 29 29 28 28 28 28 28 28 28 29 29 28 28 28 28 28 29 29 29 29 29 28 27 27 27 27 27 26 26 25 24 23 23 22 22 23 24 24 25 25 25 26 26 28 28 28 29 29 28 27 27 26 26 26 27 27 28 28 28 27 27 27 27 27 27 28 28 28
28 28 28 28 28 28 28 28 28 28 28 28 28 28 28 28 28 28 28 28 28 27 26 26 26 26 26 25 26 26 25 24 23 23 22 22 23 24 24 25 25 26 26 26 27 27 27 29 30 29 29 28 27 26 26 26 27 27 28 28 28 27 27 26 27 27 27 28 27
28 28 28 27 27 27 27 27 27 27 27 27 27 27 28 28 27 28 28 28 28 27 26 26 26 26 26 27 27 26 25 24 24 23 23 23 24 24 25 26 26 26 26 26 26 26 26 26 28 29 29 29 28 28 27 27 27 27 27 27 28 28 27 27 27 27 26 27 26
27 27 27 27 27 27 27 27 27 27 27 27 27 27 27 27 27 27 27 27 28 28 28 28 28 28 28 28 28 27 26 25 25 24 24 24 25 25 26 26 26 26 26 26 26 26 27 27 28 29 29 28 28 28 28 27 27 27 27 27 27 27 27 27 26 26 26 26 26
27 27 27 27 27 27 27 27 27 27 27 27 27 26 26 26 26 26 26 26 28 30 30 30 30 31 31 30 29 28 27 26 26 26 26 26 26 26 26 26 26 26 27 26 27 27 27 27 28 28 28 27 27 27 27 27 27 27 27 27 27 27 26 26 26 26 26 26 27
27 27 27 27 27 27 26 27 27 26 26 26 26 26 26 26 26 26 27 29 31 33 34 34 33 32 31 30 29 29 28 27 28 28 28 28 27 27 27 27 27 27 27 27 27 27 27 26 27 28 28 28 27 27 27 27 27 27 27 27 27 26 26 26 26 26 26 27 27
27 27 27 26 26 26 26 27 27 27 27 27 27 26 26 26 27 30 32 34 35 35 35 34 33 32 31 30 29 29 29 29 30 30 29 29 28 28 28 29 28 28 27 27 27 27 27 28 28 28 28 28 27 27 27 27 26 26 26 26 27 27 26 26 26 26 26 27 27
26 27 27 27 28 28 28 27 27 27 27 27 28 28 28 29 31 33 34 35 34 34 33 33 32 32 31 30 30 30 30 30 30 30 29 29 29 28 28 29 28 28 28 27 27 27 28 28 28 28 28 27 27 27 27 27 27 27 26 27 27 27 28 27 27 27 26 26 26
27 27 28 30 30 30 29 29 28 28 28 28 29 30 31 33 33 33 33 32 32 31 31 31 31 30 30 30 30 30 30 31 30 30 30 29 29 29 28 28 28 28 28 29 29 29 29 29 28 28 27 27 27 27 28 28 28 27 27 28 28 28 28 28 28 27 26 26 26
28 29 30 31 31 30 30 30 29 29 29 30 31 32 33 33 33 32 31 30 30 30 30 30 30 30 30 30 30 30 30 30 30 30 30 30 30 29 28 28 28 29 30 30 29 29 29 29 29 28 28 27 28 28 29 29 28 29 29 29 29 28 28 27 27 27 27 26 25
30 30 31 32 31 31 30 30 30 30 31 31 32 32 32 32 31 30 30 29 29 30 30 30 31 31 31 30 30 31 30 30 30 30 30 30 30 30 30 29 30 31 32 31 31 31 30 30 30 30 29 28 28 29 30 30 30 30 29 29 28 28 27 26 25 25 25 26 25
30 31 31 32 32 31 31 31 31 31 32 32 32 32 31 30 30 29 28 28 29 30 30 31 31 31 31 30 32 32 31 30 30 30 30 30 30 31 31 31 31 33 33 33 32 31 30 30 30 30 30 30 30 30 30 29 30 30 29 28 28 27 26 25 24 23 23 24 24
31 31 31 31 31 32 32 31 31 31 31 31 31 31 30 29 28 28 28 28 29 30 31 31 30 30 30 31 32 32 32 31 31 31 32 32 32 33 33 34 34 34 33 32 31 30 29 29 29 30 30 31 31 31 30 30 29 28 27 26 26 25 24 23 22 21 21 21 22
30 30 30 31 31 31 31 31 31 31 31 31 31 31 30 29 29 29 29 30 30 31 31 30 30 30 32 33 33 32 33 34 34 34 34 34 34 34 35 35 33 32 31 30 29 28 28 29 30 30 31 31 30 30 29 27 27 26 25 24 23 22 22 22 21 21 21 21 22
30 30 30 30 30 30 30 30 30 30 30 30 30 30 30 29 28 29 29 30 31 31 30 29 30 31 32 33 33 33 34 35 36 35 35 35 35 34 33 32 31 30 28 26 26 27 28 29 30 31 31 31 31 30 28 26 25 24 23 22 21 21 21 22 22 22 22 22 22
30 30 30 30 30 30 30 30 29 28 28 28 28 28 28 28 28 29 30 30 30 30 29 29 30 30 31 32 34 35 35 36 36 36 35 35 33 32 31 30 28 26 24 24 26 28 29 30 30 30 30 30 30 29 27 26 25 24 23 22 22 22 22 22 22 22 22 22 22
30 30 30 31 31 31 30 29 27 26 26 26 27 27 28 28 29 29 30 29 29 30 30 30 31 32 34 35 36 36 36 35 35 34 33 31 31 30 28 26 23 22 23 25 27 28 29 29 29 28 29 30 28 28 28 26 25 24 23 23 23 23 23 22 22 22 22 21 21
30 30 30 30 30 29 28 26 26 27 27 28 28 28 29 29 30 30 30 30 30 31 33 35 35 35 36 36 35 35 33 32 31 31 30 28 26 23 22 21 21 21 23 26 27 28 28 28 28 28 28 29 28 27 27 26 26 24 23 23 23 23 23 23 22 22 22 22 21
28 28 28 27 27 27 27 27 29 30 30 31 30 30 30 31 32 33 34 34 35 36 37 37 36 36 35 33 32 31 30 30 29 27 24 21 20 19 20 21 22 23 24 26 27 28 28 28 27 26 26 27 28 26 25 24 24 23 23 23 22 23 23 23 23 23 22 22 22
26 27 27 27 28 29 30 31 32 32 33 33 33 33 33 34 35 36 36 36 37 37 36 35 34 33 31 30 29 29 28 27 26 24 22 21 20 20 21 21 22 23 24 26 27 27 27 27 26 26 26 26 26 26 25 23 23 22 22 22 22 23 23 24 23 23 23 23 22
26 28 29 30 31 31 32 33 33 33 33 34 35 35 35 35 36 36 35 35 34 33 31 30 29 28 26 24 22 22 23 23 23 24 24 23 22 21 21 21 21 22 24 25 26 27 27 27 27 26 26 26 26 25 24 23 22 22 22 22 22 22 23 23 23 23 23 23 23
29 30 32 33 32 32 32 33 32 32 32 34 34 35 35 34 35 34 33 31 29 27 26 26 24 23 22 21 20 20 21 20 21 23 24 24 23 22 21 21 21 22 23 24 26 26 26 26 26 26 26 25 24 23 23 23 22 22 22 21 21 22 22 23 24 24 24 24 24
32 32 32 32 31 31 31 31 31 31 32 33 34 34 33 32 31 30 29 26 24 23 22 22 21 21 20 20 20 20 21 20 21 22 23 24 23 22 21 21 22 23 24 24 25 26 26 26 26 26 25 24 23 22 22 22 22 22 21 21 21 22 23 24 24 24 25 25 24
32 32 31 30 30 30 30 30 30 31 32 33 32 32 31 29 28 27 26 22 22 21 20 20 20 20 19 20 20 21 21 19 19 21 22 23 22 22 22 22 22 23 23 24 25 25 25 26 26 26 25 24 23 23 23 22 22 22 22 22 22 23 23 24 23 23 23 23 23
31 30 30 30 30 30 30 30 30 31 32 31 30 29 27 26 26 25 22 20 20 19 19 18 19 18 18 19 19 20 21 20 19 21 22 22 22 23 23 23 22 22 22 23 24 24 25 25 25 25 25 24 23 23 23 22 22 22 22 22 22 22 21 21 21 20 20 21 21
31 30 30 31 31 30 30 30 30 30 30 28 27 26 25 24 23 21 20 19 18 18 17 17 17 17 17 18 18 19 20 21 19 20 21 22 22 22 23 22 21 21 21 21 23 24 24 25 25 25 25 24 24 24 24 23 23 22 22 21 21 20 19 19 18 19 19 19 20